Regional Weather Roundup
Issued by NWS Northern Indiana

Home | Current Version | Previous Version | Graphics & Text | Print | Product List | Glossary On
Versions: 1 2 3 4 5 6 7 8 9 10 11 12 13 14 15 16 17 18 19 20 21 22 23 24 25 26 27 28 29 30 31 32 33 34 35 36 37 38 39 40 41 42 43 44 45 46 47 48 49 50
000
ASUS43 KIWX 310900
RWRIWX

KIWX WEATHER ROUNDUP
NATIONAL WEATHER SERVICE NORTHERN INDIANA
500 AM EDT FRI OCT 31 2014

NOTE: "FAIR" INDICATES FEW OR NO CLOUDS BELOW 12,000 FEET WITH NO
SIGNIFICANT WEATHER AND/OR OBSTRUCTIONS TO VISIBILITY.

* THESE STATIONS ARE NOT UNDER NWS QUALITY CONTROL. THEY ALSO MAY NOT
  REPORT WEATHER SUCH AS PRECIPITATION OR FOG.

INZ001>027-311000-
NORTHERN INDIANA

CITY           SKY/WX    TMP DP  RH WIND       PRES   REMARKS
SOUTH BEND     LGT RAIN  44  39  82 W5        29.97F
GOSHEN         CLOUDY    44  38  79 SW6       29.95F
ANGOLA*        CLOUDY    43  37  81 SW5       29.94F
FORT WAYNE     MOCLDY    42  37  82 SW5       29.98F

$$
INZ028>050-311000-
CENTRAL INDIANA

CITY           SKY/WX    TMP DP  RH WIND       PRES   REMARKS
LAFAYETTE      CLOUDY    42  39  89 W5        30.01F
KOKOMO*        CLOUDY    43  36  75 W6        30.00F
MUNCIE*        CLOUDY    43  36  76 SW5       29.98F
INDIANAPOLIS   CLOUDY    43  37  79 NW7       30.00F

$$
MIZ043>046-050>051-056>058-064>065-071>073-077>080-311000-
SOUTHWEST LOWER MICHIGAN

CITY           SKY/WX    TMP DP  RH WIND       PRES   REMARKS
BATTLE CREEK   CLOUDY    44  38  79 W8        29.92F
BENTON HARBOR  LGT RAIN  44  40  85 NW10G20   29.96F FOG
COLDWATER*     CLOUDY    45  39  80 SW6       29.93F
HILLSDALE*     LGT RAIN  43  39  85 SW5       29.92F
HOLLAND        RAIN      44  39  82 NW6G23    29.96S
GRAND RAPIDS   LGT RAIN  43  42  97 NW9       29.93S
KALAMAZOO      LGT RAIN  45  40  82 W6        29.93F
STURGIS*       LGT RAIN  43  39  87 SW3       29.93F
THREE RIVERS*  LGT RAIN  45  40  81 SW5       29.93F

$$
OHZ001>008-015>018-024>025-311000-
NORTHWEST OHIO

CITY           SKY/WX    TMP DP  RH WIND       PRES   REMARKS
DEFIANCE       CLOUDY    44  36  73 SW6       29.96F
FINDLAY        CLOUDY    44  36  73 S6        29.96F
TOLEDO EXPRESS CLOUDY    44  35  70 SW5       29.95F
TOLEDO METCALF CLOUDY    45  36  70 SW7       29.96F

$$
AND FOR LAKE MICHIGAN COASTAL AND OPEN LAKE BUOY OBSERVATIONS

STATION/POSITION TEMP    WIND        PRES    VSBY  WAVE
                 AIR SEA DIR/SP/G                  HT/PER
                 (F)     (DEG/KT/KT) (MB)    (MI)  (FT/S)
CALUMET HARBOR    47     300/ 10/ 14 1015.1S
MICHIGAN CITY     49     290/ 21/ 23   N/A
SAINT JOSEPH      49     310/ 16/ 21 1015.9S
SOUTH LAKE BUOY   45 53  320/ 21/ 27 1015.6R         5/ 5

$$
&&



USA.gov is the U.S. government's official web portal to all federal, state and local government web resources and services.